Location: Cudham
(51.3000°N, 0.0667°E)
Time: 16:30:50
(UTC+00:00)

Cosmos 1833 Rocket - Pass Details

Date: 19 May 2025
Orbit: 831 x 839 km, 71.0° (Epoch: 13 June)

Event Time Altitude Azimuth Distance (km) Brightness Sun altitude
Rises 20:22:11 0° 178° (S) 3,378 5.4 -4.8°
Reaches altitude 10° 20:24:48 10° 170° (S) 2,448 4.7 -5.1°
Maximum altitude 20:29:48 34° 107° (ESE) 1,347 3.3 -5.7°
Drops below altitude 10° 20:34:51 10° 44° (NE) 2,464 5.1 -6.2°
Sets 20:37:29 0° 35° (NE) 3,403 6.0 -6.5°
